Location: Unspecified
(0.0000°N, 0.0000°E)
Time: 06:52:54
(UTC+00:00)

STARLINK-2653 - Pass Details

Date: 12 June 2021
Orbit: 349 x 350 km, 53.0° (Epoch: 20 June)

Event Time Altitude Azimuth Distance (km) Brightness Sun altitude
Exits shadow 04:35:47 - 154° (SSE) 1,395 5.7 -19.3°
Reaches altitude 10° 04:36:19 10° 145° (SE) 1,303 5.7 -19.1°
Maximum altitude 04:37:18 11° 125° (SE) 1,230 5.8 -18.9°
Drops below altitude 10° 04:38:18 10° 105° (ESE) 1,301 6.3 -18.7°
Sets 04:41:24 0° 67° (ENE) 2,138 8.4 -18.0°
